Regional Weather Roundup
Issued by NWS

Home | Current Version | Previous Version | Text Only | Print | Product List | Glossary Off
Versions: 1 2 3 4 5 6 7 8 9 10 11 12 13 14 15 16 17 18 19 20 21 22 23 24 25 26 27 28 29 30 31 32 33 34 35 36 37 38 39 40 41 42 43 44 45 46 47 48 49 50

000
ASUS45 KCYS 031910
RWRWY

WYOMING REGIONAL WEATHER ROUNDUP
NATIONAL WEATHER SERVICE CHEYENNE WY
100 PM MDT FRI JUL 03 2015

NOTE:  "FAIR" INDICATES FEW OR NO CLOUDS BELOW 12,000 FEET
WITH NO SIGNIFICANT WEATHER AND/OR OBSTRUCTIONS TO VISIBILITY.

WYZ001-032000-
YELLOWSTONE NATIONAL PARK

CITY           SKY/WX    TMP DP  RH WIND       PRES   REMARKS
LK YELLOWSTONE   N/A     75  42  30 VRB3      30.25F
W YELLOWSTONE  NOT AVBL

$$
WYZ002>013-054>058-071-098>099-032000-
NORTHERN WYOMING

CITY           SKY/WX    TMP DP  RH WIND       PRES   REMARKS
JACKSON        SUNNY     81  50  34 SW13      30.16F
CODY           FAIR      84  50  30 SE9       30.05F
GREYBULL       FAIR      87  49  26 VRB6      29.97F
WORLAND        FAIR      88  51  28 VRB6      29.99F
SHERIDAN       FAIR      85  45  24 E5        30.02F
BUFFALO        FAIR      82  49  31 VRB5      30.09F
GILLETTE       FAIR      83  51  33 VRB5      30.06F
HULETT         FAIR      79  55  44 S5        30.09S
NEWCASTLE      FAIR      77  54  44 SE8       30.10F

$$
WYZ014>020-022>026-101>103-032000-
CENTRAL WYOMING

CITY           SKY/WX    TMP DP  RH WIND       PRES   REMARKS
BIG PINEY      FAIR      84  41  21 SW10      30.22F
PINEDALE       FAIR      81  39  22 W6        30.23F
DUBOIS         FAIR      81  37  21 W22G32    30.19F
LANDER         FAIR      82  56  40 W5        30.09F
RIVERTON       FAIR      81  54  39 NE6       30.10F
CASPER         FAIR      84  51  31 SE6       30.11F
DOUGLAS        FAIR      82  55  39 S7        30.10F

$$
WYZ021-027>030-104>119-032000-
SOUTHERN WYOMING

CITY           SKY/WX    TMP DP  RH WIND       PRES   REMARKS
EVANSTON       FAIR      83  35  18 SW5       30.25F
KEMMERER       FAIR     N/A N/A N/A W8        30.26F
FORT BRIDGER   CLEAR     82  37  20 SW7       30.27F
ROCK SPRINGS   FAIR      82  43  25 VRB3      30.22F
DIXON          FAIR      83  39  20 W7        30.22F
RAWLINS        FAIR      78  47  33 E6        30.22F
SARATOGA       FAIR      79  36  21 CALM      30.25F
LARAMIE        FAIR      77  42  28 CALM      30.25F
CHEYENNE       FAIR      75  55  49 MISG      30.20F
TORRINGTON     FAIR      82  53  36 S9        30.09F
PINE BLUFFS    FAIR      81  54  39 SW6       30.16F

$$



USA.gov is the U.S. government's official web portal to all federal, state and local government web resources and services.